Location: Robledo de Chavela
(40.5014°N, 4.2377°W)
Time: 05:43:09
(UTC+00:00)

Cosmos 2297 Rocket - Visible Passes

Search period start: 18 July 2024 00:00
Search period end: 28 July 2024 00:00
Orbit: 838 x 843 km, 71.0° (Epoch: 17 July)

Date Brightness Start Highest point End Pass type
(mag) Time Alt. Az. Time Alt. Az. Time Alt. Az.
18 Jul 5.1 00:51:55 10° NNE 00:53:16 11° NE 00:54:36 10° ENE visible
18 Jul 2.6 02:32:50 10° NNW 02:38:29 63° ENE 02:44:05 10° SE visible
18 Jul 3.6 04:18:19 10° WNW 04:21:54 17° W 04:25:29 10° SW visible
19 Jul 5.1 00:37:15 10° NE 00:37:53 10° NE 00:38:31 10° NE visible
19 Jul 2.7 02:17:33 10° NNW 02:23:09 60° ENE 02:28:32 11° SE visible
19 Jul 3.6 04:02:51 10° WNW 04:06:38 19° W 04:10:12 11° SW visible
20 Jul 2.7 02:02:15 10° NNW 02:07:50 56° ENE 02:11:53 19° SE visible
20 Jul 3.5 03:47:25 10° NW 03:51:21 20° W 03:53:34 16° SW visible
21 Jul 2.8 01:46:57 10° NNW 01:52:31 53° ENE 01:55:35 26° SE visible
21 Jul 3.4 03:31:58 10° NW 03:36:05 21° W 03:37:17 20° WSW visible
22 Jul 2.9 01:31:40 10° NNW 01:37:11 50° ENE 01:39:30 32° ESE visible
22 Jul 3.4 03:16:32 10° NW 03:20:48 22° W 03:21:13 22° WSW visible
23 Jul 3.0 01:16:23 10° NNW 01:21:52 47° ENE 01:23:36 36° ESE visible
23 Jul 3.4 03:01:08 10° NW 03:05:19 24° W 03:05:19 24° W visible
24 Jul 3.0 01:01:06 10° NNW 01:06:32 45° ENE 01:07:50 38° E visible
24 Jul 3.4 02:45:43 10° NW 02:49:34 24° W 02:49:34 24° W visible
25 Jul 3.1 00:45:49 10° N 00:51:12 42° ENE 00:52:10 39° E visible
25 Jul 3.4 02:30:19 10° NW 02:33:55 25° W 02:33:55 25° W visible
26 Jul 3.1 00:30:32 10° N 00:35:52 40° ENE 00:36:36 38° ENE visible
26 Jul 3.5 02:14:56 10° NW 02:18:20 26° W 02:18:20 26° W visible
27 Jul 3.2 00:15:16 10° N 00:20:32 38° ENE 00:21:05 37° ENE visible
27 Jul 3.5 01:59:32 10° NW 02:02:51 26° WNW 02:02:51 26° WNW visible
